DW6832 Weather Reports


Display with metric or nautical units.
time (UTC)temp
F
wind
direction
speed
MPH
gust
MPH
rain 1hr
in
rain 24hr
in
rain mn
in
humidity
%
barometer
mb
20260906165405 74 70 0.0 0.0 0.00 0.00 0.00 85 1016.8
20260906164904 73 115 0.0 0.0 0.00 0.00 0.00 86 1016.9
20260906164404 73 115 0.0 0.0 0.00 0.00 0.00 86 1016.9
20260906163906 73 115 0.0 0.0 0.00 0.00 0.00 86 1017.0
20260906163403 73 120 0.0 0.0 0.00 0.00 0.00 86 1017.1
20260906162903 73 88 0.0 0.0 0.00 0.00 0.00 87 1017.0
20260906162402 73 88 0.0 0.0 0.00 0.00 0.00 86 1017.0
20260906161902 73 87 0.0 0.0 0.00 0.00 0.00 86 1017.0
20260906161404 73 96 0.0 0.0 0.00 0.00 0.00 86 1017.1
20260906161400 73 112 0.0 0.0 0.00 0.00 0.00 86 1017.2
20260906160401 73 96 0.0 0.0 0.00 0.00 0.00 86 1017.1
20260906155901 73 169 0.0 0.0 0.00 0.00 0.00 86 1017.1
20260906155401 73 136 0.0 0.0 0.00 0.00 0.00 87 1017.0
20260906154858 73 132 0.0 0.0 0.00 0.00 0.00 87 1017.0
20260906154359 73 96 0.0 0.0 0.00 0.00 0.00 87 1017.0
20260906153859 73 121 0.0 0.0 0.00 0.00 0.00 86 1017.0
20260906153359 73 81 0.0 0.0 0.00 0.00 0.00 86 1017.0
20260906152858 73 58 0.0 0.0 0.00 0.00 0.00 87 1017.1
20260906152358 73 155 0.0 0.0 0.00 0.00 0.00 87 1017.1
20260906151859 73 155 0.0 0.0 0.00 0.00 0.00 87 1017.2
20260906151359 73 113 0.0 0.0 0.00 0.00 0.00 87 1017.2
20260906150857 73 95 0.0 0.0 0.00 0.00 0.00 87 1017.2
20260906150355 73 109 0.0 0.0 0.00 0.00 0.00 86 1017.2
20260906145854 73 205 0.0 0.0 0.00 0.00 0.00 86 1017.1
20260906145358 73 105 0.0 0.0 0.00 0.00 0.00 86 1017.1
20260906145352 73 62 0.0 0.0 0.00 0.00 0.00 86 1017.1
20260906144853 73 89 0.0 0.0 0.00 0.00 0.00 86 1017.1
20260906143853 73 70 0.0 0.0 0.00 0.00 0.00 87 1017.0
20260906143352 73 84 0.0 0.0 0.00 0.00 0.00 87 1017.0
20260906142852 73 94 0.0 0.0 0.00 0.00 0.00 88 1016.9
20260906142352 73 169 0.0 0.0 0.00 0.00 0.00 89 1016.8
20260906141853 72 85 0.0 0.0 0.00 0.00 0.00 89 1016.8
20260906141353 72 85 0.0 0.0 0.00 0.00 0.00 90 1016.8
20260906140852 72 136 0.0 0.0 0.00 0.00 0.00 90 1016.9
20260906140352 72 33 0.0 0.0 0.00 0.00 0.00 90 1016.9
20260906135852 72 98 0.0 0.0 0.00 0.00 0.00 90 1017.0
20260906135352 72 104 0.0 0.0 0.00 0.00 0.00 91 1016.9
20260906134852 71 105 0.0 0.0 0.00 0.00 0.00 91 1016.8
20260906134353 71 90 0.0 0.0 0.00 0.00 0.00 91 1016.7
20260906133853 71 96 0.0 0.0 0.00 0.00 0.00 91 1016.7
20260906133353 71 58 0.0 0.0 0.00 0.00 0.00 92 1016.6
20260906132858 70 99 0.0 0.0 0.00 0.00 0.00 92 1016.6
20260906132852 71 58 0.0 0.0 0.00 0.00 0.00 92 1016.6
20260906132353 70 57 0.0 0.0 0.00 0.00 0.00 92 1016.6
20260906131353 70 94 0.0 0.0 0.00 0.00 0.00 93 1016.5
20260906130855 70 94 0.0 0.0 0.00 0.00 0.00 93 1016.5
20260906130851 70 94 0.0 0.0 0.00 0.00 0.00 93 1016.5
20260906125849 70 94 0.0 0.0 0.00 0.00 0.00 93 1016.3
20260906125349 70 113 0.0 0.0 0.00 0.00 0.00 93 1016.3
20260906124848 69 93 0.0 0.0 0.00 0.00 0.00 93 1016.4
20260906124346 69 93 0.0 0.0 0.00 0.00 0.00 93 1016.4
20260906123846 69 46 0.0 0.0 0.00 0.00 0.00 93 1016.3
20260906123347 69 46 0.0 0.0 0.00 0.00 0.00 93 1016.2
20260906122846 69 46 0.0 0.0 0.00 0.00 0.00 93 1016.3
20260906122342 69 46 0.0 0.0 0.00 0.00 0.00 92 1016.4
20260906121840 69 46 0.0 0.0 0.00 0.00 0.00 92 1016.4
20260906121340 69 46 0.0 0.0 0.00 0.00 0.00 92 1016.3
20260906120840 69 46 0.0 0.0 0.00 0.00 0.00 92 1016.3
20260906120340 69 46 0.0 0.0 0.00 0.00 0.00 92 1016.3
20260906115838 69 46 0.0 0.0 0.00 0.00 0.00 92 1016.3
20260906115336 69 46 0.0 0.0 0.00 0.00 0.00 92 1016.2
20260906114836 69 46 0.0 0.0 0.00 0.00 0.00 92 1016.1
20260906114335 69 46 0.0 0.0 0.00 0.00 0.00 91 1016.1
20260906113838 69 46 0.0 0.0 0.00 0.00 0.00 91 1016.1
20260906113834 69 46 0.0 0.0 0.00 0.00 0.00 91 1016.1
20260906112834 69 46 0.0 0.0 0.00 0.00 0.00 91 1016.0
20260906112335 70 46 0.0 0.0 0.00 0.00 0.00 91 1016.0
20260906111834 70 46 0.0 0.0 0.00 0.00 0.00 91 1016.0
20260906111334 70 46 0.0 0.0 0.00 0.00 0.00 91 1015.8
20260906110839 70 46 0.0 0.0 0.00 0.00 0.00 91 1015.8
20260906110835 70 46 0.0 0.0 0.00 0.00 0.00 91 1015.9
20260906105836 70 46 0.0 0.0 0.00 0.00 0.00 91 1015.8
20260906105335 70 46 0.0 0.0 0.00 0.00 0.00 91 1015.8
20260906104834 70 46 0.0 0.0 0.00 0.00 0.00 90 1015.8
20260906104334 70 46 0.0 0.0 0.00 0.00 0.00 90 1015.8
20260906103834 70 46 0.0 0.0 0.00 0.00 0.00 90 1015.9
20260906103334 70 46 0.0 0.0 0.00 0.00 0.00 90 1015.8
20260906102835 70 46 0.0 0.0 0.00 0.00 0.00 90 1015.8
20260906102335 70 46 0.0 0.0 0.00 0.00 0.00 90 1015.8
20260906101833 70 46 0.0 0.0 0.00 0.00 0.00 90 1015.7
20260906101332 71 46 0.0 0.0 0.00 0.00 0.00 90 1015.7
20260906100832 71 46 0.0 0.0 0.00 0.00 0.00 89 1015.7
20260906100332 71 46 0.0 0.0 0.00 0.00 0.00 89 1015.8
20260906095831 71 46 0.0 0.0 0.00 0.00 0.00 89 1015.7
20260906095330 71 46 0.0 0.0 0.00 0.00 0.00 89 1015.6
20260906094830 71 46 0.0 0.0 0.00 0.00 0.00 89 1015.4
20260906094331 71 46 0.0 0.0 0.00 0.00 0.00 89 1015.2
20260906093830 71 46 0.0 0.0 0.00 0.00 0.00 89 1015.2
20260906093330 71 46 0.0 0.0 0.00 0.00 0.00 89 1015.1
20260906092832 71 44 0.0 0.0 0.00 0.00 0.00 88 1015.0
20260906092828 71 46 0.0 0.0 0.00 0.00 0.00 89 1015.1
20260906091828 71 44 0.0 0.0 0.00 0.00 0.00 88 1014.9
20260906091328 72 44 0.0 0.0 0.00 0.00 0.00 88 1014.9
20260906090833 72 44 0.0 0.0 0.00 0.00 0.00 88 1015.0
20260906090828 72 44 0.0 0.0 0.00 0.00 0.00 88 1014.9
20260906090328 72 44 0.0 0.0 0.00 0.00 0.00 88 1015.0
20260906085329 72 44 0.0 0.0 0.00 0.00 0.00 88 1015.1
20260906084827 72 44 0.0 0.0 0.00 0.00 0.00 87 1015.1
20260906084326 72 44 0.0 0.0 0.00 0.00 0.00 87 1015.0
20260906083830 72 44 0.0 0.0 0.00 0.00 0.00 86 1015.0
20260906083825 72 44 0.0 0.0 0.00 0.00 0.00 87 1015.0
20260906082826 72 44 0.0 0.0 0.00 0.00 0.00 86 1014.9
20260906082330 73 44 0.0 0.0 0.00 0.00 0.00 86 1014.8
20260906082326 72 44 0.0 0.0 0.00 0.00 0.00 86 1014.9
20260906081326 73 44 0.0 0.0 0.00 0.00 0.00 86 1014.8
20260906080831 73 155 0.0 0.0 0.00 0.00 0.00 86 1014.7
20260906080827 73 44 0.0 0.0 0.00 0.00 0.00 86 1014.8
20260906080433 73 98 0.0 0.0 0.00 0.00 0.00 86 1014.6
20260906075324 73 98 0.0 0.0 0.00 0.00 0.00 86 1014.6
20260906074824 73 107 0.0 0.0 0.00 0.00 0.00 86 1014.8
20260906074323 73 107 0.0 0.0 0.00 0.00 0.00 86 1014.8
20260906073824 73 93 0.0 0.0 0.00 0.00 0.00 86 1014.9
20260906073324 73 93 0.0 0.0 0.00 0.00 0.00 86 1014.9
20260906072828 73 93 0.0 0.0 0.00 0.00 0.00 86 1015.0
20260906072824 73 93 0.0 0.0 0.00 0.00 0.00 86 1015.0
20260906071826 73 93 0.0 0.0 0.00 0.00 0.00 86 1015.1
20260906071323 73 91 0.0 0.0 0.00 0.00 0.00 86 1015.1
20260906070822 73 91 0.0 0.0 0.00 0.00 0.00 86 1015.2
20260906070326 74 94 0.0 0.0 0.00 0.00 0.00 85 1015.3
20260906070322 73 91 0.0 0.0 0.00 0.00 0.00 86 1015.2
20260906065928 74 94 0.0 0.0 0.00 0.00 0.00 85 1015.4
20260906065322 74 94 0.0 0.0 0.00 0.00 0.00 85 1015.3
20260906064822 74 94 0.0 0.0 0.00 0.00 0.00 85 1015.5
20260906063822 74 94 0.0 0.0 0.00 0.00 0.00 85 1015.4
20260906063323 74 94 0.0 0.0 0.00 0.00 0.00 85 1015.3
20260906062823 74 94 0.0 0.0 0.00 0.00 0.00 85 1015.3
20260906062326 74 94 0.0 0.0 0.00 0.00 0.00 86 1015.2
20260906062321 74 94 0.0 0.0 0.00 0.00 0.00 86 1015.3
20260906061320 74 94 0.0 0.0 0.00 0.00 0.00 86 1015.3
20260906060820 74 94 0.0 0.0 0.00 0.00 0.00 86 1015.2
20260906060320 74 94 0.0 0.0 0.00 0.00 0.00 86 1015.4
20260906055819 74 94 0.0 0.0 0.00 0.00 0.00 86 1015.3
20260906055319 74 94 0.0 0.0 0.00 0.00 0.00 85 1015.2
20260906054820 74 94 0.0 0.0 0.00 0.00 0.00 85 1015.3
20260906054320 74 94 0.0 0.0 0.00 0.00 0.00 85 1015.3
20260906053818 74 94 0.0 0.0 0.00 0.00 0.00 84 1015.3
20260906053318 74 94 0.0 0.0 0.00 0.00 0.00 84 1015.3
20260906052818 74 94 0.0 0.0 0.00 0.00 0.00 84 1015.3
20260906052318 74 94 0.0 0.0 0.00 0.00 0.00 84 1015.2
20260906051818 75 94 0.0 0.0 0.00 0.00 0.00 84 1015.3
20260906051317 74 94 0.0 0.0 0.00 0.00 0.00 84 1015.3
20260906050824 74 94 0.0 0.0 0.00 0.00 0.00 85 1015.4
20260906050818 74 94 0.0 0.0 0.00 0.00 0.00 85 1015.3
20260906050319 74 94 0.0 0.0 0.00 0.00 0.00 85 1015.4
20260906045319 74 94 0.0 0.0 0.00 0.00 0.00 85 1015.5
20260906044819 74 94 0.0 0.0 0.00 0.00 0.00 85 1015.5
20260906044319 74 94 0.0 0.0 0.00 0.00 0.00 85 1015.6
20260906043819 74 94 0.0 0.0 0.00 0.00 0.00 85 1015.6
20260906043320 74 94 0.0 0.0 0.00 0.00 0.00 85 1015.6
20260906042818 74 94 0.0 0.0 0.00 0.00 0.00 84 1015.6
20260906042323 74 94 0.0 0.0 0.00 0.00 0.00 84 1015.6
20260906042319 74 94 0.0 0.0 0.00 0.00 0.00 84 1015.7
20260906041319 74 94 0.0 0.0 0.00 0.00 0.00 84 1015.6
20260906040819 74 94 0.0 0.0 0.00 0.00 0.00 84 1015.6
20260906040319 74 94 0.0 0.0 0.00 0.00 0.00 84 1015.7
20260906035818 74 94 0.0 0.0 0.00 0.00 0.00 84 1015.8
20260906035319 74 94 0.0 0.0 0.00 0.00 0.00 84 1015.8
20260906034819 74 94 0.0 0.0 0.00 0.00 0.00 84 1015.8
20260906034319 74 94 0.0 0.0 0.00 0.00 0.00 84 1015.8
20260906033823 75 94 0.0 0.0 0.00 0.00 0.00 84 1015.7
20260906033818 75 94 0.0 0.0 0.00 0.00 0.00 84 1015.7
20260906032818 75 94 0.0 0.0 0.00 0.00 0.00 83 1015.7
20260906032323 75 94 0.0 0.0 0.00 0.00 0.00 83 1015.6
20260906032319 75 94 0.0 0.0 0.00 0.00 0.00 83 1015.7
20260906031921 75 94 0.0 0.0 0.00 0.00 0.00 83 1015.6
20260906030815 75 94 0.0 0.0 0.00 0.00 0.00 83 1015.6
20260906030311 75 94 0.0 0.0 0.00 0.00 0.00 83 1015.6
20260906025816 75 94 0.0 0.0 0.00 0.00 0.00 83 1015.7
20260906025812 75 94 0.0 0.0 0.00 0.00 0.00 83 1015.7
20260906025308 75 94 0.0 0.0 0.00 0.00 0.00 83 1015.7
20260906024307 76 94 0.0 0.0 0.00 0.00 0.00 82 1015.8
20260906023810 76 94 0.0 0.0 0.00 0.00 0.00 82 1015.8
20260906023806 76 94 0.0 0.0 0.00 0.00 0.00 82 1015.8
20260906022805 76 94 0.0 0.0 0.00 0.00 0.00 82 1015.7
20260906022301 76 94 0.0 0.0 0.00 0.00 0.00 81 1015.5
20260906021804 76 94 0.0 0.0 0.00 0.00 0.00 81 1015.4
20260906021800 76 94 0.0 0.0 0.00 0.00 0.00 81 1015.3
20260906021404 76 94 0.0 0.0 0.00 0.00 0.00 80 1015.2
20260906020307 77 94 0.0 0.0 0.00 0.00 0.00 79 1014.6
20260906020259 77 94 0.0 0.0 0.00 0.00 0.00 80 1015.0
20260906015759 77 94 0.0 0.0 0.00 0.00 0.00 80 1014.9
20260906015301 77 94 0.0 0.0 0.00 0.00 0.00 79 1014.7
20260906014259 78 94 0.0 0.0 0.00 0.00 0.00 79 1014.5
20260906013803 78 94 0.0 0.0 0.00 0.00 0.00 78 1014.0
20260906013759 78 94 0.0 0.0 0.00 0.00 0.00 78 1014.2
20260906012758 78 94 0.0 0.0 0.00 0.00 0.00 78 1013.9
20260906012301 79 94 0.0 0.0 0.00 0.00 0.00 77 1013.6
20260906012257 78 94 0.0 0.0 0.00 0.00 0.00 77 1013.8
20260906011257 79 94 0.0 0.0 0.00 0.00 0.00 76 1013.6
20260906010757 79 94 0.0 0.0 0.00 0.00 0.00 76 1013.6
20260906010257 80 94 0.0 0.0 0.00 0.00 0.00 75 1013.5
20260906005758 80 84 0.0 0.0 0.00 0.00 0.00 74 1013.5
20260906005259 81 162 0.0 0.0 0.00 0.00 0.00 72 1013.4
20260906005255 81 78 0.0 0.0 0.00 0.00 0.00 73 1013.3
20260906004255 82 120 0.0 0.0 0.00 0.00 0.00 71 1013.4
20260906003753 82 96 0.0 0.0 0.00 0.00 0.00 70 1013.3
20260906003252 83 96 0.0 0.0 0.00 0.00 0.00 69 1013.2
20260906002751 83 96 0.0 0.0 0.00 0.00 0.00 68 1013.1
20260906002252 84 90 0.0 0.0 0.00 0.00 0.00 66 1013.0
20260906001751 84 110 0.0 0.0 0.00 0.00 0.00 66 1012.9
20260906001255 85 51 0.0 0.0 0.00 0.00 0.00 65 1012.9
20260906001251 85 51 0.0 0.0 0.00 0.00 0.00 65 1012.9
20260906000251 85 51 0.0 0.0 0.00 0.00 0.00 64 1012.9
20260905235755 85 183 0.0 0.0 0.00 0.00 0.00 63 1012.9
20260905235751 85 51 0.0 0.0 0.00 0.00 0.00 64 1013.0
20260905234749 85 195 0.0 0.0 0.00 0.00 0.00 63 1012.8
20260905234249 84 118 0.0 0.0 0.00 0.00 0.00 63 1012.9
20260905233748 84 96 0.0 0.0 0.00 0.00 0.00 62 1012.9
20260905233250 84 46 0.0 0.0 0.00 0.00 0.00 62 1012.9
20260905233246 85 96 0.0 0.0 0.00 0.00 0.00 62 1012.8
20260905232245 85 41 0.0 0.0 0.00 0.00 0.00 63 1012.7
20260905231749 85 35 0.0 0.0 0.00 0.00 0.00 63 1012.6
20260905231744 85 184 0.0 0.0 0.00 0.00 0.00 63 1012.6
20260905230745 85 45 0.0 0.0 0.00 0.00 0.00 63 1012.5
20260905230249 85 37 0.0 0.0 0.00 0.00 0.00 62 1012.4
20260905230245 85 39 0.0 0.0 0.00 0.00 0.00 62 1012.5
20260905225249 85 80 0.0 0.0 0.00 0.00 0.00 62 1012.3
20260905225244 85 80 0.0 0.0 0.00 0.00 0.00 62 1012.4
20260905224248 85 65 0.0 0.0 0.00 0.00 0.00 62 1012.2
20260905224243 85 44 0.0 0.0 0.00 0.00 0.00 61 1012.2
20260905223247 85 34 0.0 0.0 0.00 0.00 0.00 63 1012.3
20260905223243 85 43 0.0 0.0 0.00 0.00 0.00 62 1012.2
20260905222242 85 31 0.0 0.0 0.00 0.00 0.00 63 1012.3
20260905221747 85 45 0.0 0.0 0.00 0.00 0.00 62 1012.4
20260905221743 85 39 0.0 0.0 0.00 0.00 0.00 63 1012.4
20260905220743 85 36 0.0 0.0 0.00 0.00 0.00 62 1012.5
20260905220242 85 49 0.0 0.0 0.00 0.00 0.00 62 1012.6
20260905215741 85 30 0.0 0.0 0.00 0.00 0.00 62 1012.7
20260905215247 85 11 0.0 0.0 0.00 0.00 0.00 64 1012.8
20260905215241 85 67 0.0 0.0 0.00 0.00 0.00 63 1012.6
20260905214741 85 94 0.0 0.0 0.00 0.00 0.00 64 1012.6
20260905213741 85 41 0.0 0.0 0.00 0.00 0.00 65 1012.9
20260905213241 85 39 0.0 0.0 0.00 0.00 0.00 65 1012.8
20260905212740 84 355 0.0 0.0 0.00 0.00 0.00 65 1012.7
20260905212245 84 49 0.0 0.0 0.00 0.00 0.00 66 1012.8
20260905212241 84 37 0.0 0.0 0.00 0.00 0.00 66 1012.8
20260905211241 84 52 0.0 0.0 0.00 0.00 0.00 66 1012.7
20260905210739 83 22 0.0 0.0 0.00 0.00 0.00 66 1012.7
20260905210238 83 43 0.0 0.0 0.00 0.00 0.00 68 1012.7
20260905205739 83 35 0.0 0.0 0.00 0.00 0.00 68 1012.7
20260905205244 83 60 0.0 0.0 0.00 0.00 0.00 69 1012.8
20260905205240 83 62 0.0 0.0 0.00 0.00 0.00 69 1012.7
20260905204242 83 45 0.0 0.0 0.00 0.00 0.00 69 1013.1
20260905204238 83 31 0.0 0.0 0.00 0.00 0.00 69 1013.0
20260905203242 82 57 0.0 0.0 0.00 0.00 0.00 70 1013.3
20260905203238 82 50 0.0 0.0 0.00 0.00 0.00 71 1013.6
20260905202237 82 37 0.0 0.0 0.00 0.00 0.00 71 1013.7
20260905201737 82 41 0.0 0.0 0.00 0.00 0.00 71 1013.8
20260905201238 82 131 0.0 0.0 0.00 0.00 0.00 71 1013.9
20260905200737 82 41 0.0 0.0 0.00 0.00 0.00 72 1014.0
20260905200236 81 41 0.0 0.0 0.00 0.00 0.00 72 1014.1
20260905195736 81 41 0.0 0.0 0.00 0.00 0.00 73 1014.2
20260905195236 81 47 0.0 0.0 0.00 0.00 0.00 73 1014.3
20260905194736 81 47 0.0 0.0 0.00 0.00 0.00 73 1014.5
20260905194236 81 90 0.0 0.0 0.00 0.00 0.00 75 1014.5
20260905193735 81 90 0.0 0.0 0.00 0.00 0.00 74 1014.6
20260905193239 81 91 0.0 0.0 0.00 0.00 0.00 75 1014.7
20260905193235 81 91 0.0 0.0 0.00 0.00 0.00 75 1014.7
20260905192237 80 91 0.0 0.0 0.00 0.00 0.00 75 1014.9
20260905192233 81 91 0.0 0.0 0.00 0.00 0.00 75 1014.8
20260905191238 80 91 0.0 0.0 0.00 0.00 0.00 76 1014.8
20260905191234 80 91 0.0 0.0 0.00 0.00 0.00 76 1014.9
20260905190235 80 91 0.0 0.0 0.00 0.00 0.00 76 1014.9
20260905190231 80 91 0.0 0.0 0.00 0.00 0.00 77 1014.8
20260905185836 79 91 0.0 0.0 0.00 0.00 0.00 77 1014.8
20260905185230 80 91 0.0 0.0 0.00 0.00 0.00 78 1014.8
20260905184231 79 91 0.0 0.0 0.00 0.00 0.00 76 1014.9
20260905184227 79 91 0.0 0.0 0.00 0.00 0.00 77 1014.8
20260905183226 79 90 0.0 0.0 0.00 0.00 0.00 78 1014.8
20260905182726 79 90 0.0 0.0 0.00 0.00 0.00 79 1015.0
20260905182231 78 90 0.0 0.0 0.00 0.00 0.00 80 1015.0
20260905182227 79 90 0.0 0.0 0.00 0.00 0.00 79 1015.0
20260905181231 78 121 0.0 0.0 0.00 0.00 0.00 82 1015.0
20260905181226 78 122 0.0 0.0 0.00 0.00 0.00 81 1015.0
20260905180831 77 154 0.0 0.0 0.00 0.00 0.00 82 1015.1
20260905175731 77 60 0.0 0.0 0.00 0.00 0.00 84 1015.3
20260905175726 77 60 0.0 0.0 0.00 0.00 0.00 83 1015.2
20260905174727 77 60 0.0 0.0 0.00 0.00 0.00 84 1015.3
20260905174227 76 65 0.0 0.0 0.00 0.00 0.00 85 1015.4
20260905173726 76 98 0.0 0.0 0.00 0.00 0.00 85 1015.5
20260905173225 76 111 0.0 0.0 0.00 0.00 0.00 86 1015.6
20260905172725 76 109 0.0 0.0 0.00 0.00 0.00 87 1015.6
20260905172225 75 60 0.0 0.0 0.00 0.00 0.00 88 1015.7
20260905171725 75 60 0.0 0.0 0.00 0.00 0.00 88 1015.8
20260905171721 75 59 0.0 0.0 0.00 0.00 0.00 89 1015.8
20260905170721 74 59 0.0 0.0 0.00 0.00 0.00 90 1015.7
20260905170221 74 59 0.0 0.0 0.00 0.00 0.00 90 1015.6
20260905165721 74 59 0.0 0.0 0.00 0.00 0.00 90 1015.6